User: anonymous   Login
Location: Unspecified
(0.0000°N, 0.0000°E)
Time: 02:06:14
(UTC+00:00)
Language:

STARLINK-32050 - Orbit

View from above orbital plane
View from above orbital plane
View from above satellite
View from above satellite

Ground track
Ground track

The orbit is defined by the following mean orbital elements,

1 60137U          26145.49797137 +.00000000 +00000-0 +15905-4 0 00009
2 60137  53.1613 323.3189 0001152  80.3685 279.7448 15.34391172    03
Epoch (UTC): 25 May 2026 11:57:04
Eccentricity: 0.0001152
inclination: 53.1613°
perigee height: 462 km
apogee height: 464 km
right ascension of ascending node: 323.3189°
argument of perigee: 80.3685°
revolutions per day: 15.34391172
mean anomaly at epoch: 279.7448°

The dashed part of the orbit path shows where the satellite is in the earth's shadow,  

DLR